FENGYUN 1C DEB

Satellite information

Favourite Embed

Satellite Type and Status

DEBRISIN ORBIT

Key statistics

Satellite FENGYUN 1C DEB at a glance.

Uptime

9666

Days in orbit

Revolutions

≈ 13.5

Per day

Orbit

SSO

Sun Synchronous Orbit

Inclination

99.5

Latest

Satellite identification and parameters

Extended collection of information and parameters for FENGYUN 1C DEB.

Object identification

Identified? True

Debris? True

Object name: FENGYUN 1C DEB

International designator: 1999-025CF

Object number (NORAD): 29789

Object ID (CCSDS): 29789

Country: PEOPLES REPUBLIC OF CHINA (PRC)

Current information (Y/N): Y

RCS size: SMALL

Orbital parameters

Period: 106.345 minutes

Inclination: 99.4552 deg

SMA: 7435.39 km

Apoapsis: 1279.266 km

Periapsis: 835.243 km

RAAN: 122.6412 deg

Eccentricy: 0.02985877

Argument of periapsis: 42.3563 deg

Mean anomaly: 338.6583 deg

Mean motion: 13.54088845 rev/day

Mean motion (dot): 0.000013 rev/day2

B* drag term: 0.0014874171 1/REarth

Two-line elements (TLE)

Creation date: Oct. 25, 2025, 3:11 a.m.

Reference frame: TEME

Reference center: EARTH

Epoch: Oct. 24, 2025, 6:34 p.m. UTC

TLE line 0: 0 FENGYUN 1C DEB

TLE line 1: 1 29789U 99025CF 25297.77383255 .00001300 00000-0 14874-2 0 9995

TLE line 2: 2 29789 99.4552 122.6412 0298588 42.3563 338.6583 13.54088845923255

Live tracking on map

Real-time ground track for satellite FENGYUN 1C DEB.

In-orbit conjunctions

A list of the most updated potential collisions computed for object FENGYUN 1C DEB.

Target Orbit TCA Probability of collision Miss distance Type
THORAD AGENA D DEB SSO 2025-05-17 21:04:37 0.0002254611 114.0 (m) DEBRIS
FENGYUN 1C DEB SSO 2024-11-14 23:39:45 0.0002801681 234.0 (m) DEBRIS

Associated space launch

Chinese polar orbiting meteorological satellite

FENGYUN 1C DEB was lifted into orbit during the mission ‘Long March 4B | Feng Yun 1C’, on board a Long March 4B space rocket.

The launch took place on May 10, 1999, 1:33 a.m. from Launch Complex 7.

For more information about the launch, click the button.

Launch to space Long March 4B | Feng Yun 1C
Long March 4B | Feng Yun 1C

Agency: N/A

Status: Launch Successful

Launch date: May 10, 1999, 1:33 a.m. UTC

Rocket: Long March 4B

Launch pad: Launch Complex 7

Location: Taiyuan Satellite Launch Center, People's Republic of China

...

Latest news about this satellite

There are no fresh news available about this satellite. Check back as we update our databases every day.


Newsletter sign-up

Weekly statistics, charts and insights to help you stay on top of the space industry.